Time,TemperatureF,DewpointF,PressureIn,WindDirection,WindDirectionDegrees,WindSpeedMPH,WindSpeedGustMPH,Humidity,HourlyPrecipIn,Conditions,Clouds,dailyrainin,SoftwareType,DateUTC
2013-03-30 00:02:00,38.0,36.0,30.27,South,175,0.0,0.0,93,0.02,,,0.16,,2013-03-30 04:02:00,
2013-03-30 00:12:00,38.0,36.0,30.27,South,175,0.0,0.0,93,0.02,,,0.16,,2013-03-30 04:12:00,
2013-03-30 00:23:00,38.0,36.0,30.27,South,175,0.0,0.0,93,0.02,,,0.16,,2013-03-30 04:23:00,
2013-03-30 00:33:00,38.0,36.0,30.25,South,175,0.0,0.0,93,0.01,,,0.16,,2013-03-30 04:33:00,
2013-03-30 00:43:00,38.0,36.0,30.25,South,175,0.0,0.0,93,0.01,,,0.16,,2013-03-30 04:43:00,
2013-03-30 00:53:00,38.0,36.0,30.26,South,175,0.0,0.0,93,0.01,,,0.16,,2013-03-30 04:53:00,
2013-03-30 01:02:00,38.0,36.0,30.25,South,175,0.0,0.0,94,0.00,,,0.16,,2013-03-30 05:02:00,
2013-03-30 01:12:00,38.0,36.0,30.25,South,175,0.0,0.0,94,0.00,,,0.16,,2013-03-30 05:12:00,
2013-03-30 01:22:00,38.0,36.0,30.25,South,175,0.0,0.0,94,0.01,,,0.17,,2013-03-30 05:22:00,
2013-03-30 01:32:00,38.0,36.0,30.25,South,175,0.0,0.0,94,0.01,,,0.17,,2013-03-30 05:32:00,
2013-03-30 01:42:00,38.0,36.0,30.25,South,175,0.0,0.0,94,0.01,,,0.17,,2013-03-30 05:42:00,
2013-03-30 01:52:00,38.0,36.0,30.24,South,175,0.0,0.0,94,0.01,,,0.17,,2013-03-30 05:52:00,
2013-03-30 02:02:00,38.0,36.0,30.23,South,175,0.0,0.0,94,0.02,,,0.18,,2013-03-30 06:02:00,
2013-03-30 02:12:00,38.0,36.0,30.23,South,175,0.0,0.0,94,0.02,,,0.18,,2013-03-30 06:12:00,
2013-03-30 02:23:00,38.0,36.0,30.24,South,175,0.0,0.0,94,0.01,,,0.18,,2013-03-30 06:23:00,
2013-03-30 02:32:00,38.0,36.0,30.24,South,175,0.0,0.0,94,0.01,,,0.18,,2013-03-30 06:32:00,
2013-03-30 02:42:00,38.0,36.0,30.24,South,175,0.0,0.0,94,0.01,,,0.18,,2013-03-30 06:42:00,
2013-03-30 02:52:00,38.0,36.0,30.24,South,175,0.0,0.0,94,0.01,,,0.18,,2013-03-30 06:52:00,
2013-03-30 03:02:00,38.0,36.0,30.24,South,175,0.0,0.0,94,0.00,,,0.18,,2013-03-30 07:02:00,
2013-03-30 03:12:00,38.0,36.0,30.24,South,175,0.0,0.0,94,0.00,,,0.18,,2013-03-30 07:12:00,
2013-03-30 03:22:00,38.0,36.0,30.24,South,175,0.0,0.0,94,0.00,,,0.18,,2013-03-30 07:22:00,
2013-03-30 03:32:00,38.0,36.0,30.23,South,175,0.0,0.0,94,0.01,,,0.19,,2013-03-30 07:32:00,
2013-03-30 03:42:00,38.0,36.0,30.23,South,175,0.0,0.0,94,0.01,,,0.19,,2013-03-30 07:42:00,
2013-03-30 03:52:00,38.0,36.0,30.23,South,175,0.0,0.0,94,0.01,,,0.19,,2013-03-30 07:52:00,
2013-03-30 04:02:00,38.0,36.0,30.23,South,175,0.0,0.0,94,0.01,,,0.19,,2013-03-30 08:02:00,
2013-03-30 04:12:00,38.0,36.0,30.23,South,175,0.0,0.0,94,0.01,,,0.19,,2013-03-30 08:12:00,
2013-03-30 04:22:00,38.0,36.0,30.23,South,175,0.0,0.0,94,0.01,,,0.19,,2013-03-30 08:22:00,
2013-03-30 04:32:00,38.0,36.0,30.22,South,175,0.0,0.0,94,0.02,,,0.21,,2013-03-30 08:32:00,
2013-03-30 04:42:00,38.0,36.0,30.22,South,175,0.0,0.0,94,0.02,,,0.21,,2013-03-30 08:42:00,
2013-03-30 04:53:00,38.0,36.0,30.22,South,175,0.0,0.0,94,0.02,,,0.21,,2013-03-30 08:53:00,
2013-03-30 05:02:00,38.0,36.0,30.22,South,175,0.0,0.0,94,0.02,,,0.21,,2013-03-30 09:02:00,
2013-03-30 05:12:00,38.0,36.0,30.22,South,175,0.0,0.0,94,0.01,,,0.21,,2013-03-30 09:12:00,
2013-03-30 05:22:00,38.0,36.0,30.22,South,175,0.0,0.0,94,0.01,,,0.21,,2013-03-30 09:22:00,
2013-03-30 05:33:00,39.0,37.0,30.21,South,175,0.0,0.0,94,0.02,,,0.22,,2013-03-30 09:33:00,
2013-03-30 05:43:00,39.0,37.0,30.21,South,175,0.0,0.0,94,0.02,,,0.22,,2013-03-30 09:43:00,
2013-03-30 05:53:00,39.0,37.0,30.21,South,175,0.0,0.0,94,0.02,,,0.23,,2013-03-30 09:53:00,
2013-03-30 06:03:00,39.0,37.0,30.21,South,175,0.0,0.0,94,0.03,,,0.24,,2013-03-30 10:03:00,
2013-03-30 06:13:00,39.0,37.0,30.21,South,175,0.0,0.0,94,0.03,,,0.24,,2013-03-30 10:13:00,
2013-03-30 06:23:00,38.0,36.0,30.21,South,175,0.0,0.0,94,0.03,,,0.24,,2013-03-30 10:23:00,
2013-03-30 06:33:00,38.0,36.0,30.21,South,175,0.0,0.0,94,0.03,,,0.25,,2013-03-30 10:33:00,
2013-03-30 06:42:00,38.0,36.0,30.21,South,175,0.0,0.0,94,0.03,,,0.25,,2013-03-30 10:42:00,
2013-03-30 06:52:00,38.0,36.0,30.21,South,175,0.0,0.0,94,0.02,,,0.25,,2013-03-30 10:52:00,
2013-03-30 07:04:00,39.0,37.0,30.20,South,175,0.0,0.0,94,0.02,,,0.25,,2013-03-30 11:04:00,
2013-03-30 07:12:00,39.0,37.0,30.20,South,175,0.0,0.0,94,0.02,,,0.25,,2013-03-30 11:12:00,
2013-03-30 07:22:00,39.0,37.0,30.20,South,175,0.0,0.0,94,0.02,,,0.25,,2013-03-30 11:22:00,
2013-03-30 07:33:00,38.0,36.0,30.21,South,175,0.0,0.0,94,0.00,,,0.25,,2013-03-30 11:33:00,
2013-03-30 07:43:00,38.0,36.0,30.21,South,175,0.0,0.0,94,0.00,,,0.25,,2013-03-30 11:43:00,
2013-03-30 07:53:00,38.0,36.0,30.21,South,175,0.0,0.0,94,0.00,,,0.25,,2013-03-30 11:53:00,
2013-03-30 08:02:00,38.0,36.0,30.22,South,175,0.0,0.0,94,0.00,,,0.25,,2013-03-30 12:02:00,
2013-03-30 08:12:00,38.0,36.0,30.22,South,175,0.0,0.0,94,0.00,,,0.25,,2013-03-30 12:12:00,
2013-03-30 08:22:00,38.0,36.0,30.21,South,175,0.0,0.0,94,0.00,,,0.25,,2013-03-30 12:22:00,
2013-03-30 08:33:00,38.0,36.0,30.22,South,175,0.0,0.0,94,0.00,,,0.25,,2013-03-30 12:33:00,
2013-03-30 08:42:00,38.0,36.0,30.22,South,175,0.0,0.0,94,0.00,,,0.25,,2013-03-30 12:42:00,
2013-03-30 08:52:00,39.0,37.0,30.22,South,175,0.0,0.0,94,0.00,,,0.25,,2013-03-30 12:52:00,
2013-03-30 09:02:00,39.0,37.0,30.21,South,175,0.0,0.0,94,0.00,,,0.25,,2013-03-30 13:02:00,
2013-03-30 09:12:00,39.0,37.0,30.21,South,175,0.0,0.0,94,0.00,,,0.25,,2013-03-30 13:12:00,
2013-03-30 09:22:00,39.0,37.0,30.22,South,175,0.0,0.0,94,0.00,,,0.25,,2013-03-30 13:22:00,
2013-03-30 09:32:00,39.0,37.0,30.22,South,175,0.0,0.0,94,0.00,,,0.25,,2013-03-30 13:32:00,
2013-03-30 09:43:00,39.0,37.0,30.22,South,175,0.0,0.0,94,0.00,,,0.25,,2013-03-30 13:43:00,
2013-03-30 09:52:00,40.0,38.0,30.22,South,175,0.0,0.0,94,0.00,,,0.25,,2013-03-30 13:52:00,
2013-03-30 10:03:00,41.0,39.0,30.22,South,175,0.0,2.0,94,0.00,,,0.25,,2013-03-30 14:03:00,
2013-03-30 10:12:00,41.0,39.0,30.22,South,175,0.0,2.0,94,0.00,,,0.25,,2013-03-30 14:12:00,
2013-03-30 10:23:00,41.0,39.0,30.23,South,175,0.0,0.0,94,0.00,,,0.25,,2013-03-30 14:23:00,
2013-03-30 10:32:00,42.0,40.0,30.22,South,175,0.0,0.0,94,0.00,,,0.25,,2013-03-30 14:32:00,
2013-03-30 10:42:00,42.0,40.0,30.22,South,175,0.0,0.0,94,0.00,,,0.25,,2013-03-30 14:42:00,
2013-03-30 10:52:00,42.0,40.0,30.22,South,175,0.0,0.0,94,0.00,,,0.25,,2013-03-30 14:52:00,
2013-03-30 11:03:00,43.0,41.0,30.21,South,175,0.0,0.0,94,0.00,,,0.25,,2013-03-30 15:03:00,
2013-03-30 11:12:00,43.0,41.0,30.21,South,175,0.0,0.0,94,0.00,,,0.25,,2013-03-30 15:12:00,
2013-03-30 11:22:00,43.0,41.0,30.21,South,175,0.0,0.0,94,0.00,,,0.25,,2013-03-30 15:22:00,
2013-03-30 11:34:00,43.0,41.0,30.21,South,175,0.0,0.0,94,0.00,,,0.25,,2013-03-30 15:34:00,
2013-03-30 12:04:00,49.0,44.0,30.20,SSW,192,0.0,0.0,82,0.00,,,0.25,,2013-03-30 16:04:00,
2013-03-30 12:13:00,50.0,42.0,30.20,South,181,0.0,0.0,74,0.00,,,0.25,,2013-03-30 16:13:00,
2013-03-30 12:23:00,50.0,42.0,30.20,South,181,0.0,0.0,74,0.00,,,0.25,,2013-03-30 16:23:00,
2013-03-30 12:33:00,50.0,41.0,30.19,SSW,201,0.0,0.0,71,0.00,,,0.25,,2013-03-30 16:33:00,
2013-03-30 12:43:00,50.0,41.0,30.19,SSW,201,0.0,0.0,71,0.00,,,0.25,,2013-03-30 16:43:00,
2013-03-30 12:52:00,51.0,42.0,30.18,SSE,148,3.0,3.0,71,0.00,,,0.25,,2013-03-30 16:52:00,
2013-03-30 13:02:00,52.0,43.0,30.18,SSW,213,0.0,0.0,71,0.00,,,0.25,,2013-03-30 17:02:00,
2013-03-30 13:13:00,52.0,43.0,30.18,SSW,213,0.0,0.0,71,0.00,,,0.25,,2013-03-30 17:13:00,
2013-03-30 13:23:00,52.0,41.0,30.18,SSE,159,0.0,0.0,67,0.00,,,0.25,,2013-03-30 17:23:00,
2013-03-30 13:33:00,52.0,41.0,30.18,SSE,159,0.0,0.0,67,0.00,,,0.25,,2013-03-30 17:33:00,
2013-03-30 13:42:00,52.0,41.0,30.18,SSE,159,0.0,0.0,67,0.00,,,0.25,,2013-03-30 17:42:00,
2013-03-30 13:52:00,55.0,44.0,30.16,South,175,0.0,0.0,67,0.00,,,0.25,,2013-03-30 17:52:00,
2013-03-30 14:03:00,57.0,44.0,30.17,ESE,105,3.0,3.0,61,0.00,,,0.25,,2013-03-30 18:03:00,
2013-03-30 14:13:00,55.0,41.0,30.16,SE,141,0.0,5.0,60,0.00,,,0.25,,2013-03-30 18:13:00,
2013-03-30 14:22:00,55.0,41.0,30.16,SE,141,0.0,5.0,60,0.00,,,0.25,,2013-03-30 18:22:00,
2013-03-30 14:33:00,56.0,43.0,30.15,South,173,0.0,0.0,61,0.00,,,0.25,,2013-03-30 18:33:00,
2013-03-30 14:42:00,56.0,43.0,30.15,South,173,0.0,0.0,61,0.00,,,0.25,,2013-03-30 18:42:00,
2013-03-30 14:53:00,56.0,41.0,30.15,WSW,251,0.0,1.0,57,0.00,,,0.25,,2013-03-30 18:53:00,
2013-03-30 15:03:00,56.0,41.0,30.14,SE,136,0.0,0.0,56,0.00,,,0.25,,2013-03-30 19:03:00,
2013-03-30 15:13:00,56.0,41.0,30.14,SE,136,0.0,0.0,56,0.00,,,0.25,,2013-03-30 19:13:00,
2013-03-30 15:22:00,58.0,43.0,30.14,ESE,106,1.0,4.0,58,0.00,,,0.25,,2013-03-30 19:22:00,
2013-03-30 15:32:00,58.0,40.0,30.12,SSE,148,0.0,0.0,52,0.00,,,0.25,,2013-03-30 19:32:00,
2013-03-30 15:42:00,58.0,40.0,30.12,SSE,148,0.0,0.0,52,0.00,,,0.25,,2013-03-30 19:42:00,
2013-03-30 15:52:00,58.0,40.0,30.12,SSE,148,0.0,0.0,52,0.00,,,0.25,,2013-03-30 19:52:00,
2013-03-30 16:02:00,59.0,41.0,30.11,ESE,103,0.0,2.0,51,0.00,,,0.25,,2013-03-30 20:02:00,
2013-03-30 16:12:00,59.0,41.0,30.11,ESE,103,0.0,2.0,51,0.00,,,0.25,,2013-03-30 20:12:00,
2013-03-30 16:22:00,59.0,40.0,30.11,WNW,286,0.0,0.0,50,0.00,,,0.24,,2013-03-30 20:22:00,
2013-03-30 16:33:00,59.0,40.0,30.11,WNW,286,0.0,0.0,50,0.00,,,0.24,,2013-03-30 20:33:00,
2013-03-30 16:42:00,59.0,40.0,30.11,WNW,286,0.0,0.0,50,0.00,,,0.24,,2013-03-30 20:42:00,
2013-03-30 16:52:00,59.0,40.0,30.11,WNW,286,0.0,0.0,50,0.00,,,0.24,,2013-03-30 20:52:00,
2013-03-30 17:03:00,60.0,41.0,30.09,SSW,200,1.0,1.0,50,0.00,,,0.21,,2013-03-30 21:03:00,
2013-03-30 17:13:00,60.0,41.0,30.09,SSW,200,1.0,1.0,50,0.00,,,0.21,,2013-03-30 21:13:00,
2013-03-30 17:23:00,60.0,41.0,30.09,SSE,162,4.0,4.0,49,0.00,,,0.20,,2013-03-30 21:23:00,
2013-03-30 17:34:00,59.0,39.0,30.07,SE,139,0.0,0.0,48,0.00,,,0.20,,2013-03-30 21:34:00,
2013-03-30 17:43:00,59.0,39.0,30.07,SE,139,0.0,0.0,48,0.00,,,0.20,,2013-03-30 21:43:00,
2013-03-30 17:53:00,59.0,39.0,30.07,SE,139,0.0,0.0,48,0.00,,,0.20,,2013-03-30 21:53:00,
2013-03-30 18:03:00,59.0,40.0,30.07,SSE,163,0.0,0.0,49,0.00,,,0.18,,2013-03-30 22:03:00,
2013-03-30 18:13:00,59.0,40.0,30.07,SSE,163,0.0,0.0,49,0.00,,,0.18,,2013-03-30 22:13:00,
2013-03-30 18:23:00,59.0,39.0,30.07,SW,215,0.0,0.0,48,0.00,,,0.18,,2013-03-30 22:23:00,
2013-03-30 18:33:00,59.0,38.0,30.06,SSW,210,0.0,0.0,46,0.00,,,0.17,,2013-03-30 22:33:00,
2013-03-30 18:43:00,59.0,38.0,30.06,SSW,210,0.0,0.0,46,0.00,,,0.17,,2013-03-30 22:43:00,
2013-03-30 18:53:00,59.0,38.0,30.06,South,186,0.0,0.0,45,0.00,,,0.16,,2013-03-30 22:53:00,
2013-03-30 19:03:00,59.0,39.0,30.06,South,186,0.0,0.0,48,0.00,,,0.15,,2013-03-30 23:03:00,
2013-03-30 19:12:00,59.0,39.0,30.06,South,186,0.0,0.0,48,0.00,,,0.15,,2013-03-30 23:12:00,
2013-03-30 19:22:00,59.0,39.0,30.06,SSW,211,0.0,0.0,47,0.00,,,0.15,,2013-03-30 23:22:00,
2013-03-30 19:33:00,58.0,37.0,30.06,SSW,208,0.0,0.0,45,0.00,,,0.14,,2013-03-30 23:33:00,
2013-03-30 19:42:00,58.0,37.0,30.06,SSW,208,0.0,0.0,45,0.00,,,0.14,,2013-03-30 23:42:00,
2013-03-30 19:52:00,58.0,37.0,30.06,SSW,208,0.0,0.0,45,0.00,,,0.14,,2013-03-30 23:52:00,
2013-03-30 20:03:00,57.0,37.0,30.06,SSW,207,0.0,0.0,47,0.00,,,0.12,,2013-03-31 00:03:00,
2013-03-30 20:12:00,57.0,37.0,30.06,SSW,207,0.0,0.0,47,0.00,,,0.12,,2013-03-31 00:12:00,
2013-03-30 20:22:00,56.0,37.0,30.05,SSW,207,0.0,0.0,48,0.00,,,0.12,,2013-03-31 00:22:00,
2013-03-30 20:32:00,55.0,37.0,30.05,SSW,207,0.0,0.0,50,0.00,,,0.12,,2013-03-31 00:32:00,
2013-03-30 20:42:00,55.0,37.0,30.05,SSW,207,0.0,0.0,50,0.00,,,0.12,,2013-03-31 00:42:00,
2013-03-30 20:52:00,55.0,37.0,30.05,SSW,207,0.0,0.0,50,0.00,,,0.12,,2013-03-31 00:52:00,
2013-03-30 21:02:00,55.0,38.0,30.04,SSW,207,0.0,0.0,53,0.00,,,0.12,,2013-03-31 01:02:00,
2013-03-30 21:12:00,55.0,38.0,30.04,SSW,207,0.0,0.0,53,0.00,,,0.12,,2013-03-31 01:12:00,
2013-03-30 21:22:00,55.0,39.0,30.04,SSW,207,0.0,0.0,54,0.00,,,0.12,,2013-03-31 01:22:00,
2013-03-30 21:32:00,55.0,39.0,30.04,SSW,207,0.0,0.0,55,0.00,,,0.12,,2013-03-31 01:32:00,
2013-03-30 21:42:00,55.0,39.0,30.04,SSW,207,0.0,0.0,55,0.00,,,0.12,,2013-03-31 01:42:00,
2013-03-30 21:52:00,55.0,38.0,30.04,SSW,207,0.0,0.0,53,0.00,,,0.12,,2013-03-31 01:52:00,
2013-03-30 22:02:00,55.0,40.0,30.05,SSW,207,0.0,0.0,56,0.00,,,0.12,,2013-03-31 02:02:00,
2013-03-30 22:13:00,55.0,40.0,30.05,SSW,207,0.0,0.0,56,0.00,,,0.12,,2013-03-31 02:13:00,
2013-03-30 22:22:00,55.0,40.0,30.05,SSW,207,0.0,0.0,56,0.00,,,0.12,,2013-03-31 02:22:00,
2013-03-30 22:32:00,55.0,39.0,30.05,SSW,207,0.0,0.0,55,0.00,,,0.11,,2013-03-31 02:32:00,
2013-03-30 22:43:00,55.0,39.0,30.05,SSW,207,0.0,0.0,55,0.00,,,0.11,,2013-03-31 02:43:00,
2013-03-30 22:53:00,54.0,39.0,30.05,SSW,207,0.0,0.0,57,0.00,,,0.11,,2013-03-31 02:53:00,
2013-03-30 23:02:00,54.0,39.0,30.05,SSW,207,0.0,0.0,57,0.00,,,0.11,,2013-03-31 03:02:00,
2013-03-30 23:13:00,54.0,39.0,30.05,SSW,207,0.0,0.0,57,0.00,,,0.11,,2013-03-31 03:13:00,
2013-03-30 23:22:00,52.0,45.0,30.06,SSW,207,0.0,0.0,76,0.02,,,0.12,,2013-03-31 03:22:00,
2013-03-30 23:33:00,49.0,44.0,30.05,SSW,207,0.0,0.0,84,0.05,,,0.15,,2013-03-31 03:33:00,
2013-03-30 23:43:00,49.0,44.0,30.05,SSW,207,0.0,0.0,84,0.05,,,0.15,,2013-03-31 03:43:00,
2013-03-30 23:53:00,48.0,44.0,30.05,SSW,207,0.0,0.0,86,0.08,,,0.18,,2013-03-31 03:53:00,